Location: Krasnoyarskiy Pitomnik
(51.1333°N, 71.6167°E)
Time: 15:28:48
(UTC+00:00)

CZ-4C R/B - Pass Details

Date: 22 October 2021
Orbit: 403 x 482 km, 97.7° (Epoch: 26 November)

Event Time Altitude Azimuth Distance (km) Brightness Sun altitude
Rises 13:31:17 0° 16° (NNE) 2,488 6.5 -14.0°
Reaches altitude 10° 13:33:23 10° 19° (NNE) 1,595 5.5 -14.3°
Maximum altitude 13:36:47 64° 102° (ESE) 497 2.8 -14.8°
Drops below altitude 10° 13:40:02 10° 185° (S) 1,535 5.6 -15.3°
Sets 13:42:01 0° 188° (S) 2,383 6.7 -15.6°
